RYR4696 GCRR-LEAL

Flight info

Callsign RYR4696
Flight time 2h 4m
Altitude 38000
Route KORAL UG5 SONSO DCT NIRAL UN871 OSDAM UM985 BARPA DCT XAVIR DCT PIMOS M445 ETURA T252 XEBAR M985 ASTRO
Aircraft B38M/M-SADE3FGILRWY/SB1

Departure

Time 2026-04-28 17:14
Airport César Manrique-Lanzarote Airport (GCRR)

Arrival

Time 2026-04-28 19:18
Airport Alicante-Elche Miguel Hernández Airport (LEAL)
Time Latitude Longitude Altitude Speed Heading
2026-04-28 16:47 28.94966 -13.60778 39 ft 0 kts 297°
2026-04-28 17:07 28.94960 -13.60765 39 ft 4 kts 297°
2026-04-28 17:07 28.94948 -13.60738 41 ft 4 kts 297°
2026-04-28 17:08 28.94938 -13.60717 36 ft 4 kts 297°
2026-04-28 17:08 28.94928 -13.60692 36 ft 4 kts 275°
2026-04-28 17:08 28.94937 -13.60677 38 ft 4 kts 206°
2026-04-28 17:08 28.94960 -13.60664 37 ft 4 kts 205°
2026-04-28 17:09 28.94969 -13.60660 37 ft 0 kts 204°
2026-04-28 17:10 28.94965 -13.60662 37 ft 3 kts 204°
2026-04-28 17:10 28.94930 -13.60677 36 ft 7 kts 185°
2026-04-28 17:10 28.94895 -13.60638 39 ft 8 kts 119°
2026-04-28 17:11 28.94865 -13.60575 39 ft 10 kts 133°
2026-04-28 17:11 28.94793 -13.60588 38 ft 14 kts 206°
2026-04-28 17:11 28.94675 -13.60656 36 ft 23 kts 207°
2026-04-28 17:11 28.94520 -13.60745 34 ft 26 kts 206°
2026-04-28 17:12 28.94408 -13.60809 33 ft 28 kts 207°
2026-04-28 17:12 28.94179 -13.60943 29 ft 27 kts 208°
2026-04-28 17:12 28.94009 -13.61043 27 ft 27 kts 206°
2026-04-28 17:12 28.93835 -13.61140 25 ft 29 kts 206°
2026-04-28 17:13 28.93681 -13.61222 25 ft 15 kts 180°
2026-04-28 17:13 28.93618 -13.61133 22 ft 16 kts 114°
2026-04-28 17:13 28.93646 -13.61040 23 ft 17 kts 26°
2026-04-28 17:13 28.93911 -13.60889 28 ft 81 kts 27°
2026-04-28 17:14 28.94344 -13.60641 33 ft 129 kts 27°
2026-04-28 17:14 28.95310 -13.60076 243 ft 171 kts 25°
2026-04-28 17:14 28.96347 -13.59361 1134 ft 177 kts 31°
2026-04-28 17:14 28.97679 -13.58231 2294 ft 190 kts 33°
2026-04-28 17:15 28.98842 -13.57217 2762 ft 228 kts 34°
2026-04-28 17:15 29.00175 -13.56056 3545 ft 251 kts 34°
2026-04-28 17:15 29.01049 -13.55161 4246 ft 257 kts 44°
2026-04-28 17:15 29.02205 -13.53572 5408 ft 264 kts 49°
2026-04-28 17:16 29.03373 -13.51920 6481 ft 269 kts 49°
2026-04-28 17:16 29.04552 -13.50248 7524 ft 272 kts 48°
2026-04-28 17:16 29.05758 -13.48536 8405 ft 281 kts 49°
2026-04-28 17:16 29.07398 -13.46205 9624 ft 287 kts 48°
2026-04-28 17:17 29.08669 -13.44398 10359 ft 297 kts 48°
2026-04-28 17:17 29.09607 -13.43181 10657 ft 308 kts 40°
2026-04-28 17:17 29.11368 -13.41729 11145 ft 318 kts 23°
2026-04-28 17:17 29.13390 -13.40720 11722 ft 327 kts 21°
2026-04-28 17:18 29.15481 -13.39667 11949 ft 329 kts 21°
2026-04-28 17:18 29.17574 -13.38599 11998 ft 329 kts 21°
2026-04-28 17:18 29.19657 -13.37527 12012 ft 329 kts 21°
2026-04-28 17:18 29.21740 -13.36451 12016 ft 328 kts 22°
2026-04-28 17:19 29.23823 -13.35373 12018 ft 328 kts 22°
2026-04-28 17:19 29.25900 -13.34282 12015 ft 329 kts 25°
2026-04-28 17:19 29.27699 -13.32664 11998 ft 333 kts 47°
2026-04-28 17:19 29.29073 -13.30520 12027 ft 335 kts 52°
2026-04-28 17:20 29.30411 -13.28376 12017 ft 335 kts 52°
2026-04-28 17:20 29.31757 -13.26196 12022 ft 335 kts 52°
2026-04-28 17:20 29.33098 -13.24009 12016 ft 335 kts 52°
2026-04-28 17:20 29.34435 -13.21821 12018 ft 335 kts 52°
2026-04-28 17:21 29.35772 -13.19631 12015 ft 335 kts 52°
2026-04-28 17:21 29.37108 -13.17438 12015 ft 335 kts 52°
2026-04-28 17:21 29.38441 -13.15250 12014 ft 335 kts 52°
2026-04-28 17:22 29.41092 -13.10893 12015 ft 335 kts 52°
2026-04-28 17:22 29.42444 -13.08670 12016 ft 335 kts 52°
2026-04-28 17:22 29.43778 -13.06474 12016 ft 335 kts 52°
2026-04-28 17:23 29.46426 -13.02112 12010 ft 335 kts 52°
2026-04-28 17:23 29.47766 -12.99904 12353 ft 337 kts 52°
2026-04-28 17:23 29.49104 -12.97696 13194 ft 338 kts 52°
2026-04-28 17:23 29.50461 -12.95455 13840 ft 344 kts 52°
2026-04-28 17:24 29.51834 -12.93188 14462 ft 348 kts 52°
2026-04-28 17:24 29.53222 -12.90894 15040 ft 352 kts 52°
2026-04-28 17:24 29.54624 -12.88577 15627 ft 355 kts 52°
2026-04-28 17:24 29.56040 -12.86233 16194 ft 359 kts 52°
2026-04-28 17:25 29.57470 -12.83866 16735 ft 362 kts 52°
2026-04-28 17:25 29.60347 -12.79100 17771 ft 369 kts 52°
2026-04-28 17:25 29.61814 -12.76667 18274 ft 372 kts 52°
2026-04-28 17:26 29.63294 -12.74213 18697 ft 375 kts 52°
2026-04-28 17:26 29.64782 -12.71741 19130 ft 377 kts 52°
2026-04-28 17:26 29.66276 -12.69258 19558 ft 379 kts 52°
2026-04-28 17:26 29.67780 -12.66758 19980 ft 381 kts 52°
2026-04-28 17:27 29.69292 -12.64245 20392 ft 383 kts 52°
2026-04-28 17:27 29.70790 -12.61752 20795 ft 385 kts 52°
2026-04-28 17:27 29.72315 -12.59211 21192 ft 387 kts 52°
2026-04-28 17:27 29.73844 -12.56652 21577 ft 389 kts 52°
2026-04-28 17:28 29.75372 -12.54071 21954 ft 391 kts 52°
2026-04-28 17:28 29.78451 -12.48869 22681 ft 395 kts 52°
2026-04-28 17:28 29.80003 -12.46246 23024 ft 397 kts 52°
2026-04-28 17:29 29.81558 -12.43614 23381 ft 399 kts 52°
2026-04-28 17:29 29.83119 -12.40971 23724 ft 399 kts 52°
2026-04-28 17:29 29.84663 -12.38355 23960 ft 402 kts 52°
2026-04-28 17:30 29.87831 -12.32983 24439 ft 406 kts 52°
2026-04-28 17:30 29.91018 -12.27570 24935 ft 410 kts 52°
2026-04-28 17:30 29.92620 -12.24848 25179 ft 411 kts 52°
2026-04-28 17:31 29.94226 -12.22116 25415 ft 412 kts 52°
2026-04-28 17:31 29.97432 -12.16657 25884 ft 415 kts 52°
2026-04-28 17:32 30.00682 -12.11126 26399 ft 418 kts 51°
2026-04-28 17:32 30.02597 -12.08650 26642 ft 413 kts 39°
2026-04-28 17:32 30.04679 -12.06352 26846 ft 416 kts 40°
2026-04-28 17:32 30.06757 -12.04018 27087 ft 417 kts 40°
2026-04-28 17:33 30.08845 -12.01679 27288 ft 419 kts 40°
2026-04-28 17:33 30.10945 -11.99328 27478 ft 421 kts 40°
2026-04-28 17:33 30.13050 -11.96970 27711 ft 422 kts 40°
2026-04-28 17:33 30.14449 -11.95403 27831 ft 423 kts 40°
2026-04-28 17:34 30.17252 -11.92260 28104 ft 425 kts 40°
2026-04-28 17:34 30.19377 -11.89876 28297 ft 426 kts 40°
2026-04-28 17:34 30.21508 -11.87485 28482 ft 427 kts 40°
2026-04-28 17:34 30.23641 -11.85089 28658 ft 428 kts 40°
2026-04-28 17:35 30.25782 -11.82682 28829 ft 430 kts 40°
2026-04-28 17:35 30.27925 -11.80271 28998 ft 431 kts 40°
2026-04-28 17:35 30.30075 -11.77852 29153 ft 432 kts 40°
2026-04-28 17:35 30.32201 -11.75458 29305 ft 433 kts 40°
2026-04-28 17:36 30.34360 -11.73026 29449 ft 434 kts 40°
2026-04-28 17:36 30.36523 -11.70586 29590 ft 435 kts 40°
2026-04-28 17:36 30.38691 -11.68139 29733 ft 435 kts 40°
2026-04-28 17:36 30.40860 -11.65690 29867 ft 436 kts 40°
2026-04-28 17:37 30.43034 -11.63234 29993 ft 437 kts 40°
2026-04-28 17:37 30.45215 -11.60771 30158 ft 437 kts 39°
2026-04-28 17:37 30.47380 -11.58320 30354 ft 435 kts 39°
2026-04-28 17:37 30.49550 -11.55863 30409 ft 437 kts 40°
2026-04-28 17:38 30.53875 -11.50962 30576 ft 438 kts 40°
2026-04-28 17:38 30.58250 -11.45997 30877 ft 441 kts 40°
2026-04-28 17:39 30.60447 -11.43502 31180 ft 443 kts 40°
2026-04-28 17:39 30.62662 -11.40985 31397 ft 447 kts 40°
2026-04-28 17:39 30.67132 -11.35899 31943 ft 453 kts 40°
2026-04-28 17:40 30.69390 -11.33327 32163 ft 456 kts 40°
2026-04-28 17:40 30.71629 -11.30775 32436 ft 459 kts 40°
2026-04-28 17:40 30.73915 -11.28169 32632 ft 463 kts 40°
2026-04-28 17:40 30.76218 -11.25541 32913 ft 465 kts 40°
2026-04-28 17:41 30.78529 -11.22901 33209 ft 467 kts 40°
2026-04-28 17:41 30.80850 -11.20248 33451 ft 469 kts 40°
2026-04-28 17:41 30.83184 -11.17578 33704 ft 471 kts 40°
2026-04-28 17:41 30.85521 -11.14904 34030 ft 472 kts 40°
2026-04-28 17:42 30.87861 -11.12224 34314 ft 472 kts 40°
2026-04-28 17:42 30.90169 -11.09579 34607 ft 472 kts 40°
2026-04-28 17:42 30.92509 -11.06894 34904 ft 472 kts 40°
2026-04-28 17:42 30.94844 -11.04213 35191 ft 472 kts 40°
2026-04-28 17:43 30.97177 -11.01533 35472 ft 471 kts 40°
2026-04-28 17:43 30.99513 -10.98848 35742 ft 471 kts 40°
2026-04-28 17:43 31.01844 -10.96167 36009 ft 471 kts 40°
2026-04-28 17:43 31.04176 -10.93482 36270 ft 471 kts 40°
2026-04-28 17:44 31.06506 -10.90798 36532 ft 471 kts 40°
2026-04-28 17:44 31.08801 -10.88152 36859 ft 469 kts 40°
2026-04-28 17:44 31.11115 -10.85483 37150 ft 467 kts 40°
2026-04-28 17:44 31.13424 -10.82817 37371 ft 467 kts 40°
2026-04-28 17:45 31.15734 -10.80148 37591 ft 467 kts 40°
2026-04-28 17:45 31.18044 -10.77477 37794 ft 467 kts 40°
2026-04-28 17:45 31.20351 -10.74807 37960 ft 467 kts 40°
2026-04-28 17:46 31.24996 -10.69428 37949 ft 473 kts 40°
2026-04-28 17:46 31.29663 -10.64014 37966 ft 477 kts 40°
2026-04-28 17:47 31.34369 -10.58545 37963 ft 477 kts 40°
2026-04-28 17:47 31.39078 -10.53067 37971 ft 477 kts 40°
2026-04-28 17:48 31.43768 -10.47602 37964 ft 476 kts 40°
2026-04-28 17:48 31.48425 -10.42167 37964 ft 476 kts 40°
2026-04-28 17:49 31.53111 -10.36690 37958 ft 476 kts 41°
2026-04-28 17:49 31.57798 -10.31205 37961 ft 476 kts 41°
2026-04-28 17:50 31.62480 -10.25716 37956 ft 476 kts 41°
2026-04-28 17:50 31.67128 -10.20259 37995 ft 476 kts 41°
2026-04-28 17:51 31.71804 -10.14762 37954 ft 476 kts 41°
2026-04-28 17:51 31.76483 -10.09251 37959 ft 476 kts 41°
2026-04-28 17:52 31.81160 -10.03736 37956 ft 476 kts 41°
2026-04-28 17:52 31.88139 -9.95489 37952 ft 476 kts 41°
2026-04-28 17:53 31.92812 -9.89957 37953 ft 476 kts 41°
2026-04-28 17:53 31.97481 -9.84422 37972 ft 476 kts 41°
2026-04-28 17:54 32.02119 -9.78914 37953 ft 478 kts 41°
2026-04-28 17:54 32.06806 -9.73340 37953 ft 479 kts 41°
2026-04-28 17:55 32.11493 -9.67757 37948 ft 479 kts 41°
2026-04-28 17:55 32.16176 -9.62170 37948 ft 479 kts 41°
2026-04-28 17:56 32.20828 -9.56612 37950 ft 479 kts 41°
2026-04-28 17:56 32.25507 -9.51012 37949 ft 479 kts 41°
2026-04-28 17:57 32.30182 -9.45408 37936 ft 478 kts 42°
2026-04-28 17:57 32.34861 -9.39793 37960 ft 482 kts 42°
2026-04-28 17:58 32.39558 -9.34146 37943 ft 481 kts 42°
2026-04-28 17:58 32.44221 -9.28530 37937 ft 481 kts 42°
2026-04-28 17:59 32.48910 -9.22875 37942 ft 481 kts 42°
2026-04-28 17:59 32.53599 -9.17210 37938 ft 481 kts 42°
2026-04-28 18:00 32.58283 -9.11542 37951 ft 480 kts 43°
2026-04-28 18:00 32.62919 -9.05924 37931 ft 480 kts 43°
2026-04-28 18:01 32.67604 -9.00238 37935 ft 482 kts 43°
2026-04-28 18:01 32.72288 -8.94543 37934 ft 482 kts 43°
2026-04-28 18:02 32.76967 -8.88846 37930 ft 482 kts 43°
2026-04-28 18:02 32.81613 -8.83180 37931 ft 482 kts 43°
2026-04-28 18:03 32.86285 -8.77472 37949 ft 481 kts 44°
2026-04-28 18:03 32.90941 -8.71778 37928 ft 479 kts 44°
2026-04-28 18:04 32.95603 -8.66067 37930 ft 482 kts 44°
2026-04-28 18:04 33.00247 -8.60369 37921 ft 483 kts 44°
2026-04-28 18:05 33.04163 -8.55557 37921 ft 483 kts 44°
2026-04-28 18:05 33.09591 -8.48877 37915 ft 483 kts 44°
2026-04-28 18:06 33.14261 -8.43120 37918 ft 483 kts 44°
2026-04-28 18:06 33.18918 -8.37425 37910 ft 482 kts 39°
2026-04-28 18:07 33.21617 -8.35126 37932 ft 475 kts 28°
2026-04-28 18:07 33.24424 -8.33004 37887 ft 479 kts 31°
2026-04-28 18:07 33.30064 -8.28706 37928 ft 482 kts 30°
2026-04-28 18:08 33.35738 -8.24424 37913 ft 482 kts 30°
2026-04-28 18:08 33.41408 -8.20143 37929 ft 482 kts 30°
2026-04-28 18:09 33.47031 -8.15892 37906 ft 480 kts 30°
2026-04-28 18:09 33.52676 -8.11616 37912 ft 480 kts 30°
2026-04-28 18:10 33.58327 -8.07330 37911 ft 480 kts 30°
2026-04-28 18:10 33.63971 -8.03042 37908 ft 480 kts 30°
2026-04-28 18:11 33.69576 -7.98777 37929 ft 480 kts 30°
2026-04-28 18:11 33.75212 -7.94482 37903 ft 478 kts 31°
2026-04-28 18:12 33.80826 -7.90197 37910 ft 478 kts 31°
2026-04-28 18:12 33.86444 -7.85902 37906 ft 478 kts 31°
2026-04-28 18:13 33.92021 -7.81632 37906 ft 478 kts 31°
2026-04-28 18:13 33.97634 -7.77327 37924 ft 478 kts 31°
2026-04-28 18:14 34.03228 -7.73030 37901 ft 475 kts 31°
2026-04-28 18:14 34.08805 -7.68739 37910 ft 476 kts 31°
2026-04-28 18:15 34.14341 -7.64474 37911 ft 476 kts 31°
2026-04-28 18:15 34.19917 -7.60170 37902 ft 476 kts 31°
2026-04-28 18:16 34.25500 -7.55854 37921 ft 477 kts 32°
2026-04-28 18:16 34.31069 -7.51543 37894 ft 474 kts 32°
2026-04-28 18:17 34.36588 -7.47263 37901 ft 475 kts 32°
2026-04-28 18:17 34.42145 -7.42946 37897 ft 474 kts 32°
2026-04-28 18:18 34.47702 -7.38624 37898 ft 475 kts 32°
2026-04-28 18:18 34.52316 -7.35029 37903 ft 474 kts 32°
2026-04-28 18:19 34.58753 -7.30006 37893 ft 473 kts 32°
2026-04-28 18:19 34.64285 -7.25681 37892 ft 473 kts 32°
2026-04-28 18:20 34.69819 -7.21348 37881 ft 473 kts 33°
2026-04-28 18:20 34.75346 -7.17014 37893 ft 473 kts 33°
2026-04-28 18:21 34.80838 -7.12699 37898 ft 473 kts 33°
2026-04-28 18:21 34.86365 -7.08351 37890 ft 473 kts 33°
2026-04-28 18:22 34.91893 -7.03995 37889 ft 473 kts 33°
2026-04-28 18:22 34.97417 -6.99634 37890 ft 473 kts 33°
2026-04-28 18:23 35.02942 -6.95266 37887 ft 473 kts 33°
2026-04-28 18:23 35.08428 -6.90922 37889 ft 473 kts 33°
2026-04-28 18:24 35.13058 -6.87250 37884 ft 474 kts 33°
2026-04-28 18:24 35.19484 -6.82146 37874 ft 475 kts 34°
2026-04-28 18:25 35.25029 -6.77735 37883 ft 476 kts 34°
2026-04-28 18:26 35.33230 -6.70996 37860 ft 474 kts 44°
2026-04-28 18:26 35.35363 -6.67962 37859 ft 468 kts 59°
2026-04-28 18:26 35.37090 -6.64578 37878 ft 471 kts 60°
2026-04-28 18:27 35.40482 -6.57705 37885 ft 471 kts 61°
2026-04-28 18:27 35.43801 -6.50777 37880 ft 471 kts 61°
2026-04-28 18:28 35.47272 -6.43948 37872 ft 472 kts 60°
2026-04-28 18:28 35.50721 -6.37136 37883 ft 473 kts 60°
2026-04-28 18:29 35.54187 -6.30270 37881 ft 473 kts 60°
2026-04-28 18:29 35.57649 -6.23397 37882 ft 473 kts 60°
2026-04-28 18:30 35.61110 -6.16514 37883 ft 474 kts 60°
2026-04-28 18:30 35.64551 -6.09655 37885 ft 475 kts 60°
2026-04-28 18:31 35.68019 -6.02731 37887 ft 476 kts 60°
2026-04-28 18:31 35.71489 -5.95786 37881 ft 476 kts 60°
2026-04-28 18:32 35.74680 -5.88662 37903 ft 475 kts 65°
2026-04-28 18:32 35.77578 -5.81348 37876 ft 475 kts 66°
2026-04-28 18:33 35.80433 -5.74075 37889 ft 475 kts 66°
2026-04-28 18:33 35.83316 -5.66752 37896 ft 475 kts 65°
2026-04-28 18:34 35.86279 -5.59458 37913 ft 476 kts 65°
2026-04-28 18:34 35.89228 -5.52157 37914 ft 476 kts 65°
2026-04-28 18:35 35.92154 -5.44898 37912 ft 476 kts 65°
2026-04-28 18:35 35.95094 -5.37583 37911 ft 476 kts 65°
2026-04-28 18:36 35.98030 -5.30266 37910 ft 476 kts 65°
2026-04-28 18:36 36.01006 -5.22963 37915 ft 476 kts 64°
2026-04-28 18:37 36.04058 -5.15699 37920 ft 476 kts 64°
2026-04-28 18:37 36.07076 -5.08474 37922 ft 476 kts 64°
2026-04-28 18:38 36.10111 -5.01192 37926 ft 476 kts 64°
2026-04-28 18:38 36.13141 -4.93904 37924 ft 476 kts 64°
2026-04-28 18:39 36.16839 -4.87165 37941 ft 475 kts 45°
2026-04-28 18:39 36.21384 -4.81212 37937 ft 482 kts 47°
2026-04-28 18:40 36.26041 -4.75162 37931 ft 486 kts 46°
2026-04-28 18:40 36.30718 -4.69112 37936 ft 486 kts 46°
2026-04-28 18:41 36.35391 -4.63056 37936 ft 486 kts 46°
2026-04-28 18:41 36.40033 -4.57032 37922 ft 486 kts 46°
2026-04-28 18:42 36.44668 -4.51004 37949 ft 477 kts 46°
2026-04-28 18:42 36.49198 -4.45102 37935 ft 470 kts 46°
2026-04-28 18:43 36.53714 -4.39207 37937 ft 471 kts 46°
2026-04-28 18:43 36.58197 -4.33346 37898 ft 471 kts 46°
2026-04-28 18:44 36.62706 -4.27440 37904 ft 471 kts 46°
2026-04-28 18:44 36.69468 -4.18563 37923 ft 471 kts 47°
2026-04-28 18:45 36.73975 -4.12632 37932 ft 471 kts 47°
2026-04-28 18:45 36.78447 -4.06737 37939 ft 471 kts 47°
2026-04-28 18:46 36.82949 -4.00791 37936 ft 471 kts 47°
2026-04-28 18:46 36.87448 -3.94839 37940 ft 471 kts 47°
2026-04-28 18:47 36.91945 -3.88878 37928 ft 471 kts 47°
2026-04-28 18:47 36.96414 -3.82944 37935 ft 473 kts 47°
2026-04-28 18:48 37.00915 -3.76957 37934 ft 472 kts 46°
2026-04-28 18:48 37.05407 -3.70971 37938 ft 472 kts 46°
2026-04-28 18:49 37.08408 -3.66966 37927 ft 472 kts 46°
2026-04-28 18:49 37.14446 -3.59056 37933 ft 472 kts 46°
2026-04-28 18:50 37.18985 -3.53195 37936 ft 472 kts 45°
2026-04-28 18:50 37.23553 -3.47287 37932 ft 471 kts 45°
2026-04-28 18:51 37.28115 -3.41377 37937 ft 472 kts 45°
2026-04-28 18:51 37.32686 -3.35443 37934 ft 473 kts 45°
2026-04-28 18:52 37.37224 -3.29541 37927 ft 473 kts 45°
2026-04-28 18:52 37.41790 -3.23591 37918 ft 473 kts 45°
2026-04-28 18:53 37.46345 -3.17645 37923 ft 471 kts 45°
2026-04-28 18:53 37.50879 -3.11715 37917 ft 470 kts 45°
2026-04-28 18:54 37.55381 -3.05818 37916 ft 470 kts 45°
2026-04-28 18:54 37.59901 -2.99886 37924 ft 467 kts 44°
2026-04-28 18:55 37.62143 -2.96938 37335 ft 466 kts 44°
2026-04-28 18:55 37.63638 -2.94973 36588 ft 472 kts 44°
2026-04-28 18:55 37.66659 -2.90996 35842 ft 466 kts 45°
2026-04-28 18:55 37.68904 -2.88036 35004 ft 469 kts 45°
2026-04-28 18:56 37.71172 -2.85045 34232 ft 470 kts 45°
2026-04-28 18:56 37.73426 -2.82069 33536 ft 468 kts 45°
2026-04-28 18:56 37.75658 -2.79120 32439 ft 474 kts 46°
2026-04-28 18:56 37.77946 -2.76093 31617 ft 474 kts 46°
2026-04-28 18:57 37.80216 -2.73089 30973 ft 472 kts 46°
2026-04-28 18:57 37.82474 -2.70095 30288 ft 470 kts 46°
2026-04-28 18:57 37.84724 -2.67112 29563 ft 467 kts 46°
2026-04-28 18:57 37.86960 -2.64145 28904 ft 463 kts 46°
2026-04-28 18:58 37.89169 -2.61207 28292 ft 458 kts 46°
2026-04-28 18:58 37.91359 -2.58295 27686 ft 455 kts 46°
2026-04-28 18:58 37.93529 -2.55405 27077 ft 451 kts 46°
2026-04-28 18:58 37.95655 -2.52571 26470 ft 448 kts 46°
2026-04-28 18:59 37.97795 -2.49717 25826 ft 447 kts 46°
2026-04-28 18:59 37.99938 -2.46856 25177 ft 446 kts 46°
2026-04-28 18:59 38.02061 -2.44019 24656 ft 442 kts 46°
2026-04-28 18:59 38.04171 -2.41198 24078 ft 440 kts 46°
2026-04-28 19:00 38.06271 -2.38386 23492 ft 438 kts 46°
2026-04-28 19:00 38.08367 -2.35579 22809 ft 437 kts 46°
2026-04-28 19:00 38.10446 -2.32790 22226 ft 433 kts 46°
2026-04-28 19:00 38.12479 -2.30061 21656 ft 430 kts 46°
2026-04-28 19:01 38.14523 -2.27315 21100 ft 426 kts 46°
2026-04-28 19:01 38.16549 -2.24591 20539 ft 423 kts 46°
2026-04-28 19:01 38.18560 -2.21881 19986 ft 420 kts 47°
2026-04-28 19:01 38.20216 -2.18835 19297 ft 421 kts 65°
2026-04-28 19:02 38.21071 -2.15310 18815 ft 416 kts 81°
2026-04-28 19:02 38.21523 -2.11685 18305 ft 414 kts 82°
2026-04-28 19:02 38.21948 -2.08079 17734 ft 411 kts 82°
2026-04-28 19:02 38.22348 -2.04539 17197 ft 408 kts 83°
2026-04-28 19:03 38.22737 -2.00986 16681 ft 405 kts 83°
2026-04-28 19:03 38.23117 -1.97452 16175 ft 401 kts 83°
2026-04-28 19:03 38.23492 -1.93950 15685 ft 398 kts 83°
2026-04-28 19:03 38.23862 -1.90480 15198 ft 396 kts 84°
2026-04-28 19:04 38.24230 -1.87026 14726 ft 393 kts 84°
2026-04-28 19:04 38.24594 -1.83589 14254 ft 391 kts 84°
2026-04-28 19:04 38.24955 -1.80175 13778 ft 388 kts 84°
2026-04-28 19:04 38.25313 -1.76786 13276 ft 385 kts 84°
2026-04-28 19:05 38.25662 -1.73470 12810 ft 382 kts 84°
2026-04-28 19:05 38.26011 -1.70138 12350 ft 378 kts 84°
2026-04-28 19:05 38.26356 -1.66840 11884 ft 375 kts 84°
2026-04-28 19:05 38.26696 -1.63567 11445 ft 372 kts 85°
2026-04-28 19:06 38.27033 -1.60333 11144 ft 364 kts 85°
2026-04-28 19:06 38.27251 -1.58235 11036 ft 357 kts 85°
2026-04-28 19:06 38.27676 -1.54127 10815 ft 343 kts 85°
2026-04-28 19:06 38.27982 -1.51161 10635 ft 334 kts 85°
2026-04-28 19:07 38.28280 -1.48266 10478 ft 324 kts 85°
2026-04-28 19:07 38.28564 -1.45501 10332 ft 315 kts 85°
2026-04-28 19:07 38.28843 -1.42772 10184 ft 307 kts 85°
2026-04-28 19:07 38.29114 -1.40119 10042 ft 298 kts 85°
2026-04-28 19:08 38.29378 -1.37527 9818 ft 293 kts 85°
2026-04-28 19:08 38.29639 -1.34964 9487 ft 292 kts 85°
2026-04-28 19:08 38.29899 -1.32412 9159 ft 290 kts 85°
2026-04-28 19:08 38.30156 -1.29871 8843 ft 288 kts 85°
2026-04-28 19:09 38.30410 -1.27356 8540 ft 286 kts 85°
2026-04-28 19:09 38.30662 -1.24858 8249 ft 283 kts 85°
2026-04-28 19:09 38.30908 -1.22417 7955 ft 281 kts 84°
2026-04-28 19:09 38.31154 -1.19961 7659 ft 279 kts 84°
2026-04-28 19:10 38.31398 -1.17524 7367 ft 277 kts 84°
2026-04-28 19:10 38.31640 -1.15098 7068 ft 275 kts 84°
2026-04-28 19:10 38.31880 -1.12694 6788 ft 273 kts 84°
2026-04-28 19:10 38.32119 -1.10303 6507 ft 271 kts 84°
2026-04-28 19:11 38.32354 -1.07930 6220 ft 269 kts 84°
2026-04-28 19:11 38.32586 -1.05593 6031 ft 262 kts 84°
2026-04-28 19:11 38.32810 -1.03328 5914 ft 253 kts 84°
2026-04-28 19:11 38.33024 -1.01168 5794 ft 245 kts 84°
2026-04-28 19:12 38.33234 -0.99050 5666 ft 237 kts 84°
2026-04-28 19:12 38.33434 -0.97013 5533 ft 226 kts 83°
2026-04-28 19:12 38.33532 -0.95059 5516 ft 220 kts 93°
2026-04-28 19:12 38.33371 -0.93128 5476 ft 218 kts 99°
2026-04-28 19:13 38.33128 -0.91197 5221 ft 224 kts 99°
2026-04-28 19:13 38.32863 -0.89246 4958 ft 223 kts 99°
2026-04-28 19:13 38.32598 -0.87299 4683 ft 224 kts 99°
2026-04-28 19:13 38.32331 -0.85374 4398 ft 223 kts 99°
2026-04-28 19:14 38.32061 -0.83429 4117 ft 223 kts 99°
2026-04-28 19:14 38.31791 -0.81486 3829 ft 224 kts 99°
2026-04-28 19:14 38.31520 -0.79535 3541 ft 224 kts 99°
2026-04-28 19:14 38.31251 -0.77602 3309 ft 218 kts 99°
2026-04-28 19:15 38.30989 -0.75722 2999 ft 213 kts 99°
2026-04-28 19:15 38.30735 -0.73890 2722 ft 207 kts 99°
2026-04-28 19:15 38.30486 -0.72106 2470 ft 203 kts 98°
2026-04-28 19:15 38.30324 -0.70942 2263 ft 201 kts 98°
2026-04-28 19:16 38.30009 -0.68675 1919 ft 193 kts 97°
2026-04-28 19:16 38.29778 -0.67017 1667 ft 187 kts 98°
2026-04-28 19:16 38.29554 -0.65414 1436 ft 178 kts 97°
2026-04-28 19:16 38.29353 -0.63966 1232 ft 155 kts 98°
2026-04-28 19:17 38.29173 -0.62664 1007 ft 148 kts 98°
2026-04-28 19:17 38.29006 -0.61377 804 ft 145 kts 99°
2026-04-28 19:17 38.28826 -0.60141 616 ft 140 kts 100°
2026-04-28 19:17 38.28647 -0.58906 433 ft 142 kts 99°
2026-04-28 19:18 38.28480 -0.57688 230 ft 142 kts 100°
2026-04-28 19:18 38.28316 -0.56510 118 ft 121 kts 99°
2026-04-28 19:18 38.28200 -0.55695 103 ft 73 kts 100°
2026-04-28 19:18 38.28149 -0.55335 92 ft 27 kts 100°
2026-04-28 19:19 38.28122 -0.55088 86 ft 29 kts 90°
2026-04-28 19:19 38.28138 -0.54919 68 ft 18 kts 75°
2026-04-28 19:19 38.28182 -0.54757 66 ft 12 kts 69°
2026-04-28 19:19 38.28242 -0.54740 71 ft 12 kts 294°
2026-04-28 19:20 38.28259 -0.54836 71 ft 11 kts 281°
2026-04-28 19:20 38.28270 -0.54924 70 ft 10 kts 279°
2026-04-28 19:20 38.28281 -0.55004 81 ft 9 kts 282°
2026-04-28 19:20 38.28293 -0.55080 84 ft 9 kts 281°
2026-04-28 19:21 38.28307 -0.55179 87 ft 15 kts 285°
2026-04-28 19:21 38.28387 -0.55159 90 ft 16 kts 53°
2026-04-28 19:21 38.28420 -0.55021 90 ft 17 kts 83°
2026-04-28 19:21 38.28470 -0.54979 90 ft 8 kts
2026-04-28 19:22 38.28526 -0.54975 90 ft 6 kts 333°
2026-04-28 19:22 38.28535 -0.54985 92 ft 6 kts 317°
2026-04-28 19:22 38.28564 -0.55036 91 ft 1 kts 304°
2026-04-28 19:22 38.28565 -0.55037 91 ft 0 kts 304°